Regional Weather Roundup
Issued by NWS Pendleton, OR

Home | Current Version | Previous Version | Text Only | Print | Product List | Glossary On
Versions: 1 2 3 4 5 6 7 8 9 10 11 12 13 14 15 16 17 18 19 20 21 22 23 24 25 26 27 28 29 30 31 32 33 34 35 36 37 38 39 40 41 42 43 44 45 46 47 48 49 50
000
ASUS46 KPDT 222025
RWRPDT
PENDLETON REGIONAL WEATHER ROUNDUP
NATIONAL WEATHER SERVICE PENDLETON OREGON
1200 PM PST MON DEC 22 2014

NOTE: FAIR INDICATES FEW OR NO CLOUDS BELOW 12,000 FEET WITH NO
SIGNIFICANT WEATHER AND/OR OBSTRUCTIONS TO VISIBILITY.

# INDICATES UNOFFICIAL STATION AND DATA

WAZ520-222110-
EAST SLOPES OF WASHINGTON CASCADES

CITY            SKY/WX      TMP DP  RH  WIND    PRES   REMARKS
#BULLFROG 2SW   N/A         42  35  76  CALM    27.86S
#BUMPING DAM    N/A         36  N/A N/A S5      N/A
#CLE ELUM HS    N/A         43  32  65  W7      30.22F
#CLE ELUM 2NW   N/A         42  32  67  SW5     N/A
#CLE ELUM LAKE  N/A         41  32  70  W1      30.31F
#CLIFFDEL 2NW   N/A         37  33  85  N2      N/A
#GLENWOOD       N/A         46  37  71  CALM    30.30F
#MANASTASH CYN  N/A         41  32  70  N2      30.21F
#NELSON         N/A         43  36  76  CALM    30.33F
#NILE           N/A         42  35  76  W1      29.55F
#RONALD 2NW     N/A         40  35  82  W1      30.12F
#SNOWDEN        N/A         48  28  46  NW1     N/A
#TEANAWAY 4NE   N/A         44  36  73  SW2     N/A
#TROUT LAKE HS  N/A         49  33  54  W3      N/A
#TROUT LAKE 1NE N/A         47  35  63  W13     30.32F WCI 41
$$

WAZ521-222110-
SIMCOE HIGHLANDS

CITY            SKY/WX      TMP DP  RH  WIND    PRES   REMARKS
#BICKLETON HS   N/A         43  19  38  W8      34.25S
#CENTERVILLE 1SWN/A         46  38  73  W10     30.29F
#GOLDENDALE     N/A         48  39  71  S3      N/A
#GOLDENDALE 1NE N/A         48  29  47  CALM    N/A
#GOLDENDALE 1S  N/A         47  37  68  W2      30.26S
#GOLDENDALE 5WNWN/A         48  35  60  SW3     30.30F
#GOODNOE HILLS  N/A         49  38  66  SW10    N/A
#LYLE 6NE       N/A         48  41  77  S8      30.29F
$$

WAZ026-222110-
KITTITAS VALLEY

CITY            SKY/WX      TMP DP  RH  WIND    PRES   REMARKS
ELLENSBURG AP   SUNNY       49  32  52  W25     30.25F WCI 41
#ELLENSBURG CWU N/A         46  32  58  NW15    30.22F WCI 40
#ELLENSBURG 3NE N/A         45  35  68  W13     30.22F WCI 39
#ELLENSBURG     N/A         48  34  58  NW10    N/A
#ELLENSBURG 1E  N/A         47  31  53  W5      N/A
#KITTITAS 4N    N/A         47  34  60  NW8     30.29R
#KITTITAS 3S    N/A         47  34  60  W9      30.26F
#THORP 6N       N/A         40  34  79  NW8     30.32F
$$

WAZ027-222110-
YAKIMA VALLEY

CITY            SKY/WX      TMP DP  RH  WIND    PRES   REMARKS
YAKIMA AIRPORT  PTCLDY      54  30  40  NW9     30.28F
YAKIMA-VAGABOND PTCLDY      50  30  46  NW13    30.28F
#DONALD 2NE     N/A         53  27  36  SE2     29.12F
#GRANDVIEW      N/A         50  32  50  SW1     30.32F
#MABTON         N/A         50  37  61  NE1     30.29F
#MOXEE 2E       N/A         37  36  96  CALM    29.88F
#NACHES 2SW     N/A         47  35  63  W7      30.20S
#OUTLOOK DOT    N/A         N/A N/A N/A W7      N/A
#SELAH 8E       N/A         47  29  49  W12     N/A    WCI 42
#TERRACE HTS    N/A         56  35  45  N5      30.26F
#WAPATO 4NE     N/A         54  27  35  SE3     29.11F
#WEST VALLEY    N/A         50  32  50  N5      30.27F
#W YAKIMA       N/A         50  33  52  W3      30.28F
#WHITE SWAN 5E  N/A         51  34  52  NE3     30.30F
#WILEY CITY 3W  N/A         51  28  41  S3      30.29S
$$

WAZ028-222110-
LOWER COLUMBIA BASIN...WASHINGTON

CITY            SKY/WX      TMP DP  RH  WIND    PRES   REMARKS
PASCO           PTCLDY      53  33  46  W10     30.30R
PROSSER AWOS    N/A         46  37  71  NW2     30.32F
RICHLAND AWOS   PTCLDY      52  34  50  W8      30.30F
#BASIN CITY 5SW N/A         53  37  54  NW8     30.27F
#BENTON CITY    N/A         49  34  56  SW10    30.20F
#CONNELL 5N     N/A         49  35  58  W3      30.27S
#CONNELL 5NW    N/A         48  35  60  W7      30.24S
#ELTOPIA        N/A         54  35  48  W3      30.25F
#ELTOPIA 6NW    N/A         51  31  46  W7      29.23R
#KAHLOTUS       N/A         47  33  58  NW16G24 30.27S WCI 41
#KENNEWICK      N/A         42  35  76  CALM    27.86S
#KENNEWICK 3S   N/A         52  35  52  W2      30.30S
#PATERSON       N/A         49  41  74  CALM    30.29F
#PROSSER        N/A         47  31  53  CALM    30.31F
#SAGEMOOR 2W    N/A         51  33  50  SW7     30.13F
#TOUCHET 2S     N/A         51  38  61  W8      30.29R
$$

WAZ029-222110-
FOOTHILLS OF THE BLUES...WASHINGTON

CITY            SKY/WX      TMP DP  RH  WIND    PRES   REMARKS
WALLA WALLA AP  MOCLDY      50  36  58  SW10    30.28F
#COLLEGE PLACE  N/A         51  37  59  CALM    30.30S
#DAYTON SCHOOL  N/A         46  32  58  SW6     30.27S
#LOWDEN 2SE     N/A         52  40  63  W5      30.26S
#PLEASANT VIEW 1N/A         45  38  76  SW9     30.33S
#PRESCOTT       N/A         49  38  66  W5      30.29S
#SUDBURY        N/A         53  N/A N/A CALM    N/A
#WHITMAN COLLEGEN/A         49  39  68  W3      30.34F
#WAITSBURG 5S   N/A         46  38  73  SW7     30.39S
#WALLA WALLA 5E N/A         50  39  66  W9      N/A
#WALLA WALLA U  N/A         52  39  61  W3      30.29F
#WHITMAN MISSIONN/A         51  40  66  W7      30.31S
$$

WAZ030-222110-
BLUE MOUNTAINS...WASHINGTON

CITY            SKY/WX      TMP DP  RH  WIND    PRES   REMARKS
#DIXIE 5SE      N/A         40  31  70  W7      30.18F
#SKI BLUEWOOD   N/A         31  27  85  NW2     30.27S
$$

ORZ009-041-WAZ024-222110-
COLUMBIA RIVER GORGE

CITY            SKY/WX      TMP DP  RH  WIND    PRES   REMARKS
HOOD RIVER AP   PTCLDY      54  41  61  NW5     30.32F
THE DALLES AP   PTCLDY      56  40  55  N7      30.32F
#ARLINGTON AIRPON/A         50  40  68  W16     29.99S
#ARLINGTON HS   N/A         53  39  59  NW7     30.20F
#CELILO DOT     N/A         52  34  50  SW7     N/A
#LYLE           N/A         54  44  69  SW6     30.34F
#MARYHILL 2W    N/A         52  40  63  S1      N/A
#MOSIER 1S      N/A         51  31  46  W8      30.32S
#MURDOCK        N/A         54  45  71  W3      30.34F
#RUFUS DOT      N/A         53  35  50  W9      N/A

$$

ORZ510-222110-
NORTH CENTRAL OREGON

CITY            SKY/WX      TMP DP  RH  WIND    PRES   REMARKS
#COW CYN RST AREN/A         44  29  55  SW6     N/A
#DUFUR 9E       N/A         45  35  68  W8      30.38S
#GRASS VALLEY   N/A         48  31  51  S2      N/A
#GRASS VALLEY 1SN/A         51  37  59  W2      30.36F
#KENT DOT       N/A         45  24  43  S7      N/A
#MAUPIN SCHOOL  N/A         51  40  66  CALM    30.32F
#MORO SCHOOL    N/A         47  40  76  W2      30.31F
#SHANIKO 5WSW   N/A         42  22  45  W6      N/A
#TYGH VALLEY 2NEN/A         51  39  63  CALM    30.33F
#WAPANITIA AIRPON/A         49  38  66  W7      30.34F
#WASCO DOT      N/A         49  35  58  W2      N/A
#WASCO AIRPORT  N/A         48  38  68  W10     N/A
#WASCO 5NE      N/A         49  41  74  W6      30.33S
$$

ORZ511-222110-
CENTRAL OREGON

CITY            SKY/WX      TMP DP  RH  WIND    PRES   REMARKS
BEND AIRPORT    CLOUDY      45  37  73  CALM    30.32F
MADRAS AIRPORT  SUNNY       46  37  71  MISG    30.34F
PRINEVILLE AP   SUNNY       46  37  71  CALM    30.32F
REDMOND AIRPORT SUNNY       47  38  71  W3      30.31F
#BEND 1SW       N/A         44  42  93  E1      N/A
#BEND-AWBREY    N/A         47  42  83  CALM    30.34F
#BEND-KIM LN    N/A         46  42  86  CALM    30.28F
#CROOKED RVR RANN/A         48  40  74  W41G60  30.33F WCI 38
#CULVER         N/A         47  39  74  CALM    30.28F
#LAKE BILLY CHINN/A         49  22  34  SE3     30.35F
#POWELL BUTTE 3EN/A         47  38  71  SE2     N/A
#POWELL BUTTE   N/A         52  41  66  N2      29.91F
#PRINEVILLE 3N  N/A         50  41  71  S2      30.28F
#WARM SPRINGS   N/A         53  39  59  CALM    30.29F


ORZ509-222110-
EAST SLOPES OF OREGON CASCADES

CITY            SKY/WX      TMP DP  RH  WIND    PRES   REMARKS
#BLUE BOX PASS  N/A         40  -10 11  S2      N/A
#BLACK BUTTE RNCN/A         46  42  86  CALM    30.33F
#CAMP SHERMAN   N/A         51  41  68  CALM    30.35F
#LA PINE DOT    N/A         45  37  73  NW6     N/A
#LA PINE 4NW    N/A         43  39  86  CALM    30.36F
#LAVA BUTTE DOT N/A         43  35  73  NE1     N/A
#MT BACHELOR-MIDN/A         30  29  96  NE8     N/A
#SISTERS AIRPOR N/A         49  43  80  N7      30.17S
#SISTERS ODOT   N/A         50  N/A N/A SW2     N/A
#SISTERS 1NW    N/A         49  36  61  N10     N/A
#SISTERS 3N     N/A         47  40  76  SW2     30.31F
#SUNRIVER       N/A         46  41  83  W1      30.18F
#TUMALO 3W      N/A         45  40  82  SW5     30.22F
#WANOGA BUTTE D N/A         34  34  100 E1      N/A

$$

ORZ044-222110-
LOWER COLUMBIA BASIN...OREGON

CITY            SKY/WX      TMP DP  RH  WIND    PRES   REMARKS
HERMISTON       MOCLDY      51  39  63  W8      30.31S
#BOARDMAN 8SW   N/A         51  42  71  SW5     30.30F
#ECHO 8SW       N/A         51  38  61  W9      30.27F
#IONE SCHOOL    N/A         50  37  61  W13     30.28F
#IRRIGON 4NW    N/A         51  44  77  S2      N/A
#UMATILLA SCHOOLN/A         47  44  89  CALM    30.31F
#UMATILLA       N/A         50  41  71  CALM    30.29F
$$

ORZ507-222110-
NORTHERN FOOTHILLS OF THE BLUES

CITY            SKY/WX      TMP DP  RH  WIND    PRES   REMARKS
PENDLETON AIRPT MOCLDY      46  38  73  W14     30.29S WCI 40
#ADAMS 3WNW     N/A         47  41  79  W10     30.31R
#ATHENA         N/A         46  40  79  W7      30.32S
#CAYUSE         N/A         47  38  71  W16     30.29S WCI 41
#HELIX SCHOOL   N/A         47  38  71  W7      30.30R
#HELIX 3N       N/A         45  38  76  W13     30.24R WCI 39
#HELIX 6SW      N/A         46  39  76  W14     30.27S WCI 40
#HOLDMAN 5SE    N/A         48  40  74  W8      30.29S
#HOLDMAN 6E     N/A         46  39  76  NE9     30.11S
#M-F GROVE ELEM N/A         50  31  48  W3      30.27S
#M-FREEWATER 5SEN/A         49  38  66  W3      30.27F
#PENDLETON DNTN N/A         50  34  54  W3      29.11R
#PDT AQUATIC CTRN/A         51  38  61  W7      30.26S
#PENDLETON 5NE  N/A         48  40  74  CALM    30.24S
#PDT SUNRIDGE   N/A         48  38  68  W7      30.32R
#PENDLETON 7NW  N/A         47  40  76  W9      30.55
#PILOT ROCK     N/A         50  33  52  W7      30.30S
#TUTUILLA       N/A         49  37  63  W12     30.29F WCI 44
#UMAPINE 2E     N/A         52  38  59  W6      30.26S
#WESTON SCHOOL  N/A         46  37  71  NW5     30.25S

$$

ORZ508-222110-
SOUTHERN FOOTHILLS OF THE BLUES

CITY            SKY/WX      TMP DP  RH  WIND    PRES   REMARKS
LEXINGTON       MOCLDY      48  36  63  W13     30.31F WCI 43
#AJAX           N/A         47  28  47  S7      30.21F
#CONDON SCHOOL  N/A         43  33  67  CALM    30.22F
#CONDON 5W      N/A         44  31  60  W6      30.25F
#FOSSIL SCHOOL  N/A         45  29  53  NW5     30.25F
#HEPPNER EOC    N/A         46  34  63  NW7     30.28R
#HEPPNER 4NE    N/A         42  35  76  W8      30.31F
#LEXINGTON 2SE  N/A         50  38  63  W8      30.27F
#MIKKALO        N/A         47  34  60  W9      30.28F
#RUGGS 5NE      N/A         44  31  60  W6      30.46S
#RUGGS 2SW      N/A         44  32  62  W15     30.34F WCI 37

$$

ORZ502-503-222110-
BLUE MOUNTAINS

CITY            SKY/WX      TMP DP  RH  WIND    PRES   REMARKS
MEACHAM         MOCLDY      39  33  79  VRB6    30.24S
#BATTLE MTN DOT N/A         40  33  76  NW2     N/A
#HARDMAN 10S    N/A         38  28  67  N1      30.45F
#HEPPNER 15SE   N/A         38  32  79  N3      30.19S
#LADD CYN SMT   N/A         40  25  55  NW15    N/A    WCI 32
#LADD CREEK ODOTN/A         42  29  60  E3      N/A
#LONG CREEK HS  N/A         40  30  67  CALM    30.23F
#N POWDER DOT   N/A         43  27  53  N16G24  N/A    WCI 35
#PIKES PEAK     N/A         36  35  96  SW15    27.99S WCI 27
#TOLLGATE       N/A         30  29  96  SE5     30.10R
#TROY SCHOOL    N/A         44  39  82  S3      30.12R
#UKIAH          N/A         42  31  65  W7      30.33F
#WESTON 4E      N/A         37  36  96  SW5     30.25S
$$

ORZ505-222110-
JOHN DAY BASIN

CITY            SKY/WX      TMP DP  RH  WIND    PRES   REMARKS
JOHN DAY        MOCLDY      46  26  45  W10     30.28F
#JOHN DAY KJDY  N/A         47  23  38  W1      30.27F
#DAYVILLE SCHOOLN/A         32  29  89  CALM    30.16S
#MONUMENT HS    N/A         48  34  58  N1      30.29F
#MT. VERNON 5SE N/A         43  34  70  SW3     30.22F
#WINLOCK        N/A         44  26  49  E5      30.34F
$$

ORZ506-222110-
OCHOCO AND JOHN DAY HIGHLANDS

CITY            SKY/WX      TMP DP  RH  WIND    PRES   REMARKS
#HORSE RIDGE DO N/A         41  36  82  N7      N/A
#KEYES SMT DOT  N/A         40  27  59  NW10    N/A
#PAULINA SCHOOL N/A         46  29  51  N1      30.27F
#PINE MTN OBS   N/A         32  32  100 N5      N/A
#PRAIRIE CITY   N/A         38  27  64  W3      30.38R
#SENECA         N/A         39  N/A N/A N7      N/A
#SENECA 9NW     N/A         37  30  75  CALM    30.31F
$$

ORZ049-222110-
GRANDE RONDE VALLEY

CITY            SKY/WX      TMP DP  RH  WIND    PRES   REMARKS
LA GRANDE       CLOUDY      45  28  51  NW12    30.25S WCI 39
#COVE           N/A         44  38  79  N9      30.03S
#COVE SCHOOL    N/A         44  32  62  E2      30.21R
#COVE 6NW       N/A         43  33  67  NW7     30.34S
#ELGIN 3N       N/A         41  28  59  N1      29.96S
#ELGIN 1E       N/A         42  32  67  CALM    N/A
#ISLAND CITY 4N N/A         51  48  89  CALM    30.36F
#LADD CYN DOT   N/A         44  29  55  NW8     N/A
#UNION 1S       N/A         43  34  70  N7      30.21S
$$

ORZ050-222110-
WALLOWA COUNTY

CITY            SKY/WX      TMP DP  RH  WIND    PRES   REMARKS
JOSEPH AIRPORT  PTCLDY      37  23  56  NW8     30.21R
#ENTERPRISE AP  N/A         39  26  59  W15G25  30.12R WCI 31
#ENTERPRISE HS  N/A         39  29  67  NW9     30.20S
#IMNAHA SCHOOL  N/A         46  35  65  S7      30.22R
#IMNAHA 10S     N/A         41  33  73  E5      30.20R
#JOSEPH 3N      N/A         38  28  67  NW21G30 30.20S WCI 28
#JOSEPH 3W      N/A         35  19  52  CALM    30.01S
#LOSTINE        N/A         41  31  67  SE2     30.08R
#MT HOWARD 8000 N/A         19  17  92  CALM    30.06R
#PROMISE 1S     N/A         36  30  79  E5      30.39R
#SHEEP RDG 7000 N/A         20  18  92  CALM    30.30R
#WALLOWA SCHOOL N/A         41  30  65  W2      31.24R



$$



USA.gov is the U.S. government's official web portal to all federal, state and local government web resources and services.